Regional Weather Roundup
Issued by NWS

Home | Current Version | Previous Version | Graphics & Text | Print | Product List | Glossary Off
Versions: 1 2 3 4 5 6 7 8 9 10 11 12 13 14 15 16 17 18 19 20 21 22 23 24 25 26 27 28 29 30 31 32 33 34 35 36 37 38 39 40 41 42 43 44 45 46 47 48 49 50

000
ASUS43 KDTX 250710
RWRMI
MICHIGAN HOURLY REGIONAL WEATHER ROUNDUP
NATIONAL WEATHER SERVICE DETROIT/PONTIAC MI
300 AM EDT SAT OCT 25 2014

NOTE: "FAIR" INDICATES FEW OR NO CLOUDS BELOW 12,000 FEET WITH NO
SIGNIFICANT WEATHER AND/OR OBSTRUCTION TO VISIBILITY.

MIZ047>049-052>055-059>063-066>070-074>076-081>083-250800-
SOUTHEAST LOWER MICHIGAN

CITY           SKY/WX    TMP DP  RH WIND       PRES   REMARKS
ADRIAN         PTCLDY    45  44  97 W3        29.95S FOG
ALMA           MOCLDY    46  45  97 S6        29.87F FOG
ANN ARBOR      CLOUDY    38  36  92 W3        29.92F FOG
BAD AXE        CLEAR     46  46 100 SW7       29.87F FOG
CARO           FOG       41  40  97 CALM      29.87F VSB 1/4
DETROIT CITY   PTCLDY    51  45  79 SW6       29.92F
DETROIT        MOCLDY    46  44  93 S3        29.93F FOG
FLINT          PTCLDY    45  42  89 S5        29.90F FOG
GROSSE ILE     MOCLDY    52  46  82 SW6       29.92F
HILLSDALE      PTCLDY    49  49 100 SW3       29.94S FOG
HOWELL         PTCLDY    46  46  98 S5        29.91F FOG

CITY           SKY/WX    TMP DP  RH WIND       PRES   REMARKS
JACKSON        PTCLDY    45  44  97 SW6       29.92F FOG
LAMBERTVILLE   PTCLDY    50  46  87 SW5       29.95S
LANSING        MOCLDY    45  43  93 S3        29.90F FOG
LAPEER         FAIR      46  45  93 SW6       29.90F
MASON            N/A     44  43  97 CALM      29.91F FOG
MONROE         PTCLDY    46  45  93 CALM      29.92F FOG
MT. CLEMENS    PTCLDY    51  48  92 SW7       29.89F
PONTIAC        PTCLDY    46  43  89 CALM      29.91F FOG
PORT HOPE        N/A     49  46  90 SW7       29.83F
PORT HURON     CLEAR     43  43 100 CALM      29.90F FOG
TRI CITIES     PTCLDY    48  46  93 SW7       29.87F FOG
TROY           PTCLDY    49  45  86 SW3       29.93F FOG
SAGINAW HB     PTCLDY    46  46 100 SW7       29.87F FOG
$$
MIZ043>046-050>051-056>058-064>065-071>073-077>080-250800-
SOUTHWEST LOWER MICHIGAN

CITY           SKY/WX    TMP DP  RH WIND       PRES   REMARKS
BATTLE CREEK   MOCLDY    50  46  86 S7        29.92F FOG
BENTON HARBOR  CLOUDY    54  49  83 S5        29.90F
BIG RAPIDS     FOG       44  44 100 S3        29.84F VSB 1/4
COLDWATER      MOCLDY    52  51  94 SW8       29.94R
FREMONT        CLOUDY    49  48  98 SW7       29.85S FOG
HOLLAND        CLOUDY    55  50  83 S7        29.88F
GRAND RAPIDS   CLOUDY    50  47  89 S9        29.88F FOG
IONIA          PTSUNNY   49  48  96 S7        29.87F FOG
KALAMAZOO      CLOUDY    51  48  89 S7        29.91F FOG
LUDINGTON      CLOUDY    55  51  87 S12G18    29.83F
MARSHALL       CLOUDY    45  45  99 CALM      29.92S FOG
MOUNT PLEASANT MOCLDY    44  43  97 CALM      29.85F FOG
MUSKEGON       CLOUDY    53  50  89 S3        29.86F FOG
SOUTH HAVEN    CLOUDY    57  50  79 S6        29.89F
$$
MIZ016>042-250800-
NORTHERN LOWER MICHIGAN

CITY           SKY/WX    TMP DP  RH WIND       PRES   REMARKS
ALPENA         MOCLDY    46  44  93 S6        29.79F
BEAVER ISLAND  CLOUDY    52  51  95 SW13G23   29.75F FOG
BELLAIRE       CLOUDY    50  47  88 CALM      29.80F
CADILLAC       CLOUDY    46  46 100 SW9       29.81F FOG
CHARLEVOIX     CLOUDY    52  49  91 S8        29.81R
FRANKFORT      CLOUDY    55  49  78 SW9G17    29.79F
GAYLORD        CLOUDY    47  44  90 SW12      29.79F
GRAYLING       CLEAR     49  49 100 SW5       29.81F
HARBOR SPRINGS CLOUDY    53  48  83 SW8       29.77F
HOUGHTON LAKE  PTCLDY    46  44  93 SW6       29.83F
MANISTEE       CLOUDY    50  46  87 CALM      29.82F
OSCODA         PTCLDY    44  44  99 SW5       29.82F FOG
PELLSTON       CLOUDY    52  47  83 VRB7      29.76F
ROGERS CITY    MOCLDY    46  46 100 SW7       29.78
TRAVERSE CITY  CLOUDY    53  47  79 VRB6      29.78F
$$
MIZ007>008-015-250800-
EASTERN UPPER MICHIGAN

CITY           SKY/WX    TMP DP  RH WIND       PRES   REMARKS
KINROSS        CLOUDY    52  50  93 SW8       29.71F
MACKINAC ISLAN CLOUDY    49  48  97 S9        29.74F
NEWBERRY       CLOUDY    49  49  99 SW12G23   29.70F FOG
S. S. MARIE    CLOUDY    51  47  86 SW9       29.70F
MUNISING         N/A     54  49  83 S12G20    29.67F
$$
MIZ004>006-011>014-085-250800-
CENTRAL UPPER MICHIGAN

CITY           SKY/WX    TMP DP  RH WIND       PRES   REMARKS
MANISTIQUE     CLOUDY    50  49  99 SW8       29.72F FOG
ESCANABA       PTCLDY    50  46  87 SW6       29.72F
MENOMINEE      CLOUDY    54  50  87 W7        29.76F
SAWYER-GWINN   PTCLDY    49  47  92 SW8       29.70S
$$
MIZ001>003-009>011-084-250800-
WESTERN UPPER MICHIGAN

CITY           SKY/WX    TMP DP  RH WIND       PRES   REMARKS
IRON MOUNTAIN  CLEAR     54  49  83 W10       29.74S
HOUGHTON       CLEAR     58  44  60 W23G31    29.65R
COPPER HARBOR    N/A     62  43  49 NW18G35   29.59F
IRONWOOD       CLEAR     54  46  76 W13       29.76R
$$

ABBREVIATIONS USED IN REMARKS
   TC - TEMPERATURE IN CELSIUS
  WCI - WIND CHILL INDEX
   HX - HEAT INDEX
  VSB - VISIBILITY




USA.gov is the U.S. government's official web portal to all federal, state and local government web resources and services.